Fresno, CA

4:07 AM PST on November 13, 2019 (GMT -0800)
Fresno Yosemite International

Weather History for KFAT - September, 2019

Change the Weather History Date:

Thursday, September 19, 2019

  Actual Average Record
Temperature  
Mean Temperature 70 °F 76 °F  
Max Temperature 80 °F 90 °F 105 °F (1922)
Min Temperature 60 °F 61 °F 44 °F (1978)
Degree Days  
Heating Degree Days 0    
Month to date heating degree days 0  
Since 1 July heating degree days 0  
Cooling Degree Days 5    
Month to date cooling degree days 278  
Year to date cooling degree days 2219  
Growing Degree Days 20 (Base 50)    
Moisture  
Dew Point 49 °F    
Average Humidity 53    
Maximum Humidity 78    
Minimum Humidity 28    
Precipitation  
Precipitation 0.00 in 0.01 in 0.63 in (1959)
Month to date precipitation 0.00 0.08  
Year to date precipitation 9.52 7.94  
Snow  
Snow 0.00 in - - ()
Month to date snowfall 0.0  
Since 1 July snowfall 0.0  
Since 1 September snowfall 0.0  
Snow Depth 0.00 in    
Sea Level Pressure  
Sea Level Pressure 29.89 in    
Wind  
Wind Speed 11 mph (WNW)    
Max Wind Speed 22 mph    
Max Gust Speed 26 mph    
Visibility 10 miles    
Events      
T = Trace of Precipitation, MM = Missing Value Source: NWS Daily Summary

Daily Weather History Graph

Daily Weather History Graph

Search for Another Location

Airport or City:

Astronomy

Sep. 19, 2019 Rise Set
Actual Time 6:44 AM PDT 7:00 PM PDT
Civil Twilight 6:18 AM PDT 7:26 PM PDT
Nautical Twilight 5:48 AM PDT 7:56 PM PDT
Astronomical Twilight 5:17 AM PDT 8:27 PM PDT
Moon 10:20 PM PDT (9/19) 11:45 AM PDT (9/19)
Length of Visible Light 13h 08m
Length of Day
12h 16m
Waning Gibbous, 73% of the Moon is Illuminated
Sep 19
Waning Gibbous
Sep 21
Last Quarter
Sep 28
New
Oct 5
First Quarter
Oct 13
Full

Hourly Weather History & Observations

Time (PDT) Temp. Dew Point Humidity Pressure Visibility Wind Dir Wind Speed Gust Speed Precip Events Conditions
12:53 AM 66.9 °F 53.1 °F 61% 29.87 in 10.0 mi NW 19.6 mph - N/A   Scattered Clouds
1:53 AM 66.0 °F 53.1 °F 63% 29.87 in 10.0 mi NW 17.3 mph - N/A   Scattered Clouds
2:53 AM 64.9 °F 53.1 °F 65% 29.87 in 10.0 mi WNW 15.0 mph - N/A   Partly Cloudy
3:53 AM 64.0 °F 52.0 °F 65% 29.87 in 10.0 mi NW 10.4 mph - N/A   Scattered Clouds
4:53 AM 63.0 °F 52.0 °F 67% 29.87 in 10.0 mi NW 11.5 mph - N/A   Mostly Cloudy
5:53 AM 62.1 °F 53.1 °F 72% 29.88 in 10.0 mi NW 11.5 mph - N/A   Mostly Cloudy
6:53 AM 61.0 °F 53.1 °F 75% 29.90 in 10.0 mi NW 13.8 mph - N/A   Scattered Clouds
7:53 AM 61.0 °F 52.0 °F 72% 29.92 in 9.0 mi WNW 11.5 mph - N/A   Scattered Clouds
8:53 AM 64.0 °F 52.0 °F 65% 29.93 in 10.0 mi NW 10.4 mph - N/A   Scattered Clouds
9:53 AM 66.9 °F 53.1 °F 61% 29.94 in 10.0 mi WNW 8.1 mph - N/A   Partly Cloudy
10:53 AM 70.0 °F 52.0 °F 53% 29.93 in 10.0 mi West 5.8 mph - N/A   Partly Cloudy
11:53 AM 73.9 °F 51.1 °F 45% 29.93 in 10.0 mi WNW 12.7 mph 18.4 mph N/A   Partly Cloudy
12:53 PM 75.9 °F 48.9 °F 38% 29.91 in 10.0 mi WNW 8.1 mph - N/A   Partly Cloudy
1:53 PM 77.0 °F 48.9 °F 37% 29.89 in 10.0 mi WNW 9.2 mph - N/A   Partly Cloudy
2:53 PM 79.0 °F 48.0 °F 34% 29.88 in 10.0 mi WNW 4.6 mph - N/A   Partly Cloudy
3:53 PM 79.0 °F 45.0 °F 30% 29.86 in 10.0 mi West 10.4 mph - N/A   Partly Cloudy
4:53 PM 79.0 °F 44.1 °F 29% 29.86 in 10.0 mi WNW 15.0 mph 18.4 mph N/A   Partly Cloudy
5:53 PM 79.0 °F 42.1 °F 27% 29.84 in 10.0 mi NW 15.0 mph - N/A   Partly Cloudy
6:53 PM 75.9 °F 41.0 °F 29% 29.85 in 10.0 mi NW 13.8 mph - N/A   Partly Cloudy
7:53 PM 73.0 °F 41.0 °F 31% 29.86 in 10.0 mi WNW 12.7 mph - N/A   Clear
8:53 PM 72.0 °F 44.1 °F 37% 29.87 in 10.0 mi WNW 10.4 mph - N/A   Clear
9:53 PM 70.0 °F 46.0 °F 42% 29.87 in 10.0 mi WNW 11.5 mph - N/A   Clear
10:53 PM 66.9 °F 46.0 °F 47% 29.88 in 10.0 mi West 8.1 mph - N/A   Clear
11:53 PM 64.9 °F 46.0 °F 50% 29.89 in 10.0 mi West 6.9 mph - N/A   Clear